Location: Erp
(42.9417°N, 1.2009°E)
Time: 10:58:16
(UTC+00:00)

Cosmos 1190 Rocket - Pass Details

Date: 12 January 2026
Orbit: 753 x 775 km, 74.1° (Epoch: 10 February)

Event Time Altitude Azimuth Distance (km) Brightness Sun altitude
Rises 17:00:50 0° 344° (NNW) 3,214 7.1 -3.8°
Reaches altitude 10° 17:03:17 10° 350° (N) 2,286 6.3 -4.2°
Maximum altitude 17:08:19 50° 66° (ENE) 954 4.2 -5.0°
Drops below altitude 10° 17:13:20 10° 141° (SE) 2,278 6.3 -5.9°
Sets 17:15:46 0° 147° (SSE) 3,202 7.1 -6.3°
